Home > Weather > Podgorica > Past weeks

Flag for Montenegro Past Weather in Podgorica, Montenegro — Yesterday and Last 2 Weeks

Now
88 °F

Sunny.


Feels Like: 88 °F
Forecast: 67 / 94 °F
Wind: 3 mph from Northeast

Location: Podgorica Titograd

Current Time: Jul 2, 2016 at 11:47:11 AM

Latest Report: Jul 2, 2016 at 11:00 AM


Visibility: 10 mi

Pressure: 29.95 "Hg

Humidity: 40%

Dew Point: 61 °F

Location of PodgoricaLocation

Past Weather in Podgorica — Graph

°F

Podgorica Temperature Yesterday

Maximum temperature yesterday: 90 °F (at 4:00 PM)
Minimum temperature yesterday: 70 °F (at 3:30 AM)
Average temperature yesterday: 80 °F

High & Low Weather Summary for the Past Weeks

 TemperatureHumidityPressure
High97 °F (Jun 23, 2:00 PM)100% (Jun 20, 12:30 AM)30.09 "Hg (Jun 20, 12:30 AM)
Low64 °F (Jun 20, 3:30 AM)27% (Jun 25, 4:00 PM)29.74 "Hg (Jun 25, 5:30 PM)
Average81 °F56%29.94 "Hg
* Reported Jun 17 10:00 AM — Jul 2 10:30 AM, Podgorica, Weather by CustomWeather, © 2016

Note: Actual official high and low records may vary slightly from our data, if they occured in-between our weather recording intervals... More about our weather records

Advertising

Podgorica Weather History for the Previous 24 Hours

Scroll right to see more
 ConditionsComfort  
Time TempWeatherWind HumidityBarometerVisibility
10:30 AM
Sat, Jul 2
86 °FSunny.2 mph43%29.98 "Hg10 mi
10:00 AM86 °FPassing clouds.3 mph43%29.98 "HgN/A
9:30 AM82 °FSunny.1 mph45%29.98 "Hg10 mi
9:00 AM82 °FSunny.2 mph45%29.98 "Hg10 mi
8:30 AM82 °FPassing clouds.3 mph48%29.98 "HgN/A
8:00 AM81 °FPassing clouds.3 mph48%29.98 "HgN/A
7:30 AM79 °FSunny.1 mph51%29.98 "Hg10 mi
7:00 AM75 °FSunny.1 mph57%29.98 "Hg10 mi
6:30 AM73 °FSunny.1 mph61%29.98 "Hg10 mi
6:00 AM72 °FClear.1 mph61%29.98 "Hg10 mi
5:30 AM72 °FClear.2 mph61%29.98 "Hg10 mi
5:00 AM72 °FClear.No wind65%29.98 "Hg10 mi
4:30 AM72 °FPassing clouds.3 mph61%29.98 "HgN/A
4:00 AM72 °FClear.7 mph65%29.98 "Hg10 mi
3:30 AM72 °FClear.5 mph65%29.98 "Hg10 mi
3:00 AM73 °FClear.7 mph57%29.98 "Hg10 mi
2:30 AM73 °FPassing clouds.8 mph57%29.98 "HgN/A
2:00 AM73 °FClear.2 mph61%29.98 "Hg10 mi
1:30 AM73 °FPassing clouds.3 mph61%29.98 "HgN/A
1:00 AM75 °FPassing clouds.3 mph54%30.01 "HgN/A
12:30 AM75 °FClear.2 mph54%30.01 "Hg10 mi
12:00 AM75 °FClear.3 mph57%30.01 "Hg10 mi
11:30 PM
Fri, Jul 1
77 °FPassing clouds.2 mph51%30.01 "HgN/A
11:00 PM77 °FPassing clouds.6 mph54%30.01 "HgN/A
10:30 PM79 °FPassing clouds.5 mph51%30.01 "HgN/A
10:00 PM81 °FPassing clouds.7 mph48%30.01 "HgN/A
9:30 PM81 °FPassing clouds.2 mph62%29.98 "HgN/A
9:00 PM81 °FPassing clouds.No wind62%29.98 "HgN/A
8:30 PM82 °FPassing clouds.2 mph48%29.98 "HgN/A
8:00 PM84 °FPassing clouds.2 mph45%29.98 "HgN/A
7:30 PM86 °FPassing clouds.3 mph38%29.98 "HgN/A
7:00 PM88 °FScattered clouds.1 mph35%29.98 "HgN/A
6:30 PM88 °FPassing clouds.3 mph33%29.98 "HgN/A
6:00 PM90 °FPassing clouds.3 mph31%29.98 "HgN/A
5:30 PM90 °FPassing clouds.5 mph36%29.98 "HgN/A
5:00 PM90 °FPassing clouds.3 mph33%29.98 "HgN/A
4:30 PM88 °FPassing clouds.5 mph38%29.95 "HgN/A
4:00 PM90 °FPassing clouds.5 mph36%29.98 "HgN/A
3:30 PM88 °FPassing clouds.5 mph40%29.98 "HgN/A
3:00 PM88 °FPassing clouds.6 mph38%29.98 "HgN/A
2:30 PM88 °FPassing clouds.6 mph38%29.98 "HgN/A
2:00 PM88 °FPassing clouds.5 mph35%30.01 "HgN/A
1:30 PM88 °FPassing clouds.5 mph38%30.01 "HgN/A
1:00 PM86 °FPassing clouds.7 mph43%30.01 "HgN/A
12:30 PM86 °FPassing clouds.3 mph43%30.01 "HgN/A
12:00 PM86 °FPassing clouds.5 mph43%30.01 "HgN/A
11:30 AM86 °FPassing clouds.3 mph46%30.01 "HgN/A
11:00 AM84 °FPassing clouds.3 mph45%30.01 "HgN/A
Weather by CustomWeather, © 2016

See weather overviewHow to use our weather pages